Flag for Australia Weather past 2 weeks in Mudgee, New South Wales, Australia

Now
27 °F

Chilly.


Feels Like: 23 °F
Forecast: 33 / 66 °F
Wind: 3 mph from Northeast

Location: Mudgee Aws

Current Time: Sep 20, 2014 at 6:29:16 AM

Latest Report: Sep 20, 2014 at 5:00 AM


Visibility: N/A

Pressure: 30.17 "Hg

Humidity: 94%

Dew point: 26 °F

Location of MudgeeLocation

Historic Weather in Mudgee — Graph

°F

Mudgee temperature yesterday

Maximum temperature yesterday: 60 °F (at 3:00 PM)
Minimum temperature yesterday: 29 °F (at 5:00 AM)
Average temperature yesterday: 45 °F

Past Weeks' High & Low Weather Summary

 TemperatureHumidityPressure
High71 °F (Sep 14, 3:00 PM)99% (Sep 14, 8:00 AM)30.43 "Hg (Sep 14, 8:00 AM)
Low27 °F (Sep 20, 5:00 AM)29% (Sep 15, 2:00 PM)29.75 "Hg (Sep 10, 3:00 AM)
Average53 °F68%30.13 "Hg
* Reported Sep 5 5:00 AM — Sep 20 5:00 AM, Mudgee, Weather by CustomWeather, © 2014

Note: Actual official high and low records may vary slightly from our data, if they occured in-between our weather recording intervals... More about our weather records

Advertising

Mudgee weather history for previous 24 hours

 ConditionsComfort  
Time TempWeatherWind HumidityBarometerVisibility
5:00 AM
Sep 20
27 °FChilly.3 mph94%30.17 "HgN/A
3:00 AM29 °FChilly.No wind87%30.16 "HgN/A
2:00 AM33 °FChilly.3 mph93%30.17 "HgN/A
12:00 AM37 °FChilly.6 mph90%30.19 "HgN/A
11:00 PM
Sep 19
36 °FChilly.6 mph89%30.19 "HgN/A
9:00 PM45 °FPassing clouds.1 mph69%30.18 "HgN/A
8:00 PM50 °FCool.3 mph58%30.16 "HgN/A
6:00 PM54 °FCool.6 mph54%30.12 "HgN/A
5:00 PM60 °FRefreshingly cool.7 mph45%30.10 "HgN/A
3:00 PM60 °FOvercast.7 mph40%30.09 "HgN/A
2:00 PM59 °FRefreshingly cool.7 mph41%30.11 "HgN/A
12:00 PM58 °FOvercast.3 mph43%30.14 "HgN/A
11:00 AM55 °FRefreshingly cool.6 mph47%30.17 "HgN/A
9:00 AM47 °FPassing clouds.1 mph74%30.21 "HgN/A
8:00 AM40 °FChilly.No wind90%30.20 "HgN/A
6:00 AM32 °FOvercast.No wind97%30.18 "HgN/A
Weather by CustomWeather, © 2014

See weather overviewHow to use our weather pages